ATLAS D DEB, 2329

Orbit data source: Space-Track

ATLAS D DEB, 2329 is space debris in LEO originally from a launch on Thu, 14 Jul 1966 UTC launched from the Air Force Western Test Range (AFWTR). Debris objects in space refer to the collection of defunct objects orbiting the Earth. Examples of debris include non-operational satellites, rocket bodies, and fragments generated from explosions, collisions, or faulty payload assembly.

Loading next visibility...
Identifier
2329, 1966-063D
Orbit
LEO
Last TLE update
8 hours ago
Origin
Manufacturer
Goodyear
Mission
Spacecraft
Bus & Motor
CONTAINER, Unknown motor
Mass
2 kg wet, 2 kg dry
Launch date (UTC)
1966-07-14 (59 years ago)
Launch vehicle
Unknown
Launch site
Air Force Western Test Range (AFWTR)
Object type
Payload
Rocket body
Debris
Shape & HBR
Half Cyl, 0.5 m
Radar Cross Section
0.210 m², Medium (>0.1 m² and < 1m²)

Expand to show TLE details & history

TLE from 8 hours ago
0 ATLAS D DEB
1 02329U 66063D   25167.45312213  .00000466  00000-0  15578-3 0  9994
2 02329 144.2877  47.8537 0021884 137.3250  31.4489 13.92023207971262
Epoch: 2025-06-16T10:52Z
TLE epoch observation values (Epoch: 2025-06-16T10:52:29.752Z)
Latitude
6.44585°
Longitude
168.76006°
Altitude
906.37 km
Speed
7.408 km/s
True Right ascension
15h 47m 23s
True Declination
6° 24' 30"
Sunlit
Object was in full shadow at epoch
Visualization orbit readout
Latitude
1.07121°
Longitude
-20.07222°
Altitude
932.265 km
Speed
7.382 km/s
Apparent Right ascension
00h 33m 36s
Apparent Declination
-43° 40' 32"
Sunlit
Object is in daylight
Visualization observer readout
Local Sidereal Time
05:21:49
Azimuth
225.649° WSW
Elevation
-15.794°
Doppler factor
1
Orbital elements
Apogee altitude
940.485 km
Perigee altitude
908.523 km
Semi-major axis
7,302.641 km
Eccentricity
0.00219
Inclination
144.2877°
RAAN
47.8537°
Arg. of periapsis
137.325°
True anomaly
Unknown
Mean anomaly
31.4489°
Eccentric anomaly
Unknown
Mean motion
3.47795 °/min
Orbital period
103.51 mins
BSTAR
0.00015578
Loading maneuver chart data...
Loading SW <> Apogee altitude chart data...
Loading historical data...
Loading historical data...
Loading historical data...
Loading historical data...
Loading historical data...
Loading historical data...
Loading historical data...

ATLAS D DEB Visibility forecast

Observer location: undefined°, undefined°

Span
Click to sort rows by Start time (UTC) header in descending order
Start Az.
Max El. time (UTC)
Max El. Az.
Max El.
End time (UTC)
End Az.
7 mins2025-06-17 07:17:09.354Z110.505° ESE2025-06-17 07:20:09.354Z147.57° SSE20.018°2025-06-17 07:24:09.354Z198.378° SSW
8 mins2025-06-17 08:55:09.354Z101.982° ESE2025-06-17 08:59:09.354Z177.274° S34.433°2025-06-17 09:03:09.354Z233.235° WSW
9 mins2025-06-17 10:33:09.354Z104.979° ESE2025-06-17 10:37:09.354Z197.453° SSW40.223°2025-06-17 10:42:09.354Z257.831° W
8 mins2025-06-17 12:11:09.354Z124.915° SE2025-06-17 12:15:09.354Z206.099° SW36.786°2025-06-17 12:19:09.354Z262.861° W
7 mins2025-06-17 13:50:09.354Z163.12° S2025-06-17 13:53:09.354Z208.642° SW24.144°2025-06-17 13:57:09.354Z258.001° W
|